Weather in Glubokoye

Russia / Pskov Oblast     56°36′37″N   29°01′16″E
temp.,
°C
wind,
m/s
gust,
m/s
humid.,
%
clouds,
%
prec.,
mm/h
press.,
hPa
HPBL,
m
6 may, thu
thu600:00+8s2599100 2.9 1000143
03:00+7sse1399100 7.5 997114
06:00+7wsw2798100 0.8 995343
09:00+5wnw2997100 8.9 995572
12:00+7wsw4791100 1.7 996941
15:00+8wsw61185100 3.3 9981255
18:00+7wsw61287100 1.1 10001258
21:00+5sw5118892 1.2 1002980
7 may, fri
fri700:00+5sw6128546 0.1 10031178
03:00+3sw514895 0.1 1004999
06:00+3ssw4138894 0.0 1004625
09:00+7sw597196 0.0 10051201
12:00+8sw5767100 0.4 10061434
15:00+11ssw374797 0.4 10052214
18:00+11ssw2453100 0.0 10041631
21:00+7ese2585100 0.3 1003123
8 may, sat
sat800:00+6ese0199100 5.5 100163
03:00+6ssw2796100 7.6 1000690
06:00+4nw4897100 0.5 1000560
09:00+3wnw4998100 2.4 1002717
12:00+2wnw51298100 3.1 1004565
15:00+4wnw51095100 5.0 1005888
18:00+5nw489193 0.9 1007900
21:00+3wnw399316 1.3 1009272
9 may, sun
sun900:00+2wnw4129489 0.1 1012522
03:00+1w312935 0.1 1015392
06:000w311950 0.0 1018327
09:00+5w36714 0.0 1019492
12:00+10wsw4640100 0.0 10211636
15:00+12wsw4639100 0.0 10212012
18:00+11sw465399 0.0 10211666
21:00+6s387572 0.0 1022142
10 may, mon
mon1000:00+5s3108053 0.0 1023234
03:00+6s31078100 0.1 1023283
06:00+7s41383100 0.4 1023439
09:00+11ssw51169100 0.4 1024480
12:00+16ssw57525 0.0 10241002
15:00+19ssw57485 0.0 10241391
18:00+18s4756100 0.0 10241337
21:00+13sse4127544 0.0 1024363